Tracking 18980 objects as of 19-Feb-2018
HD Live streaming from Space Station
objects crossing your sky now

YOUTHSAT

Track YOUTHSAT now!
10-day predictions
YOUTHSAT is classified as:


NORAD ID: 37388
Int'l Code: 2011-015B
Perigee: 808.6 km
Apogee: 828.0 km
Inclination: 98.5 °
Period: 101.1 minutes
Semi major axis: 7189 km
RCS: 0.6107 m2 (medium)
Launch date: April 20, 2011
Source: India (IND)
Launch site: SRIHARIKOTA (SRI)

YOUTHSAT, a joint mission between Indian and Russian students, carries three science instruments to study the upper atmosphere and measure solar cosmic rays.
aabbcc
Your satellite tracking list
Your tracking list is empty




NASA's NSSDC Master Catalog

Two Line Element Set (TLE):
1 37388U 11015B   18050.18550829  .00000010  00000-0  23054-4 0  9998
2 37388  98.5353 121.6762 0013423 248.5010 111.4753 14.24206823355335
Source of the keplerian elements: AFSPC